Regional Weather Roundup
Issued by NWS

Home | Current Version | Previous Version | Graphics & Text | Print | Product List | Glossary On
Versions: 1 2 3 4 5 6 7 8 9 10 11 12 13 14 15 16 17 18 19 20 21 22 23 24 25 26 27 28 29 30 31 32 33 34 35 36 37 38 39 40 41 42 43 44 45 46 47 48 49 50
000
ASUS43 KDMX 032307
RWRIA

WEATHER ROUNDUP FOR IOWA
NATIONAL WEATHER SERVICE DES MOINES IA
600 PM CDT FRI JUL 03 2015

NOTE: "FAIR" INDICATES FEW OR NO CLOUDS BELOW 12,000 FEET WITH NO
SIGNIFICANT WEATHER AND/OR OBSTRUCTIONS TO VISIBILITY.

* - THESE STATIONS ARE NOT NWS STATIONS...THUS NOT UNDER NWS
QUALITY CONTROL.  THEY ALSO DO NOT REPORT WEATHER SUCH
AS PRECIPITATION OR FOG.

IAZ001>003-012>014-020>022-031>034-043>046-040000-
   NORTHWEST IOWA

CITY           SKY/WX    TMP DP  RH WIND       PRES   REMARKS
CARROLL *      SUNNY     75  55  50 W5        29.97S
CHEROKEE *     SUNNY     75  57  53 SW5       29.97F
DENISON *      SUNNY     75  52  43 CALM      29.96S
LE MARS *      SUNNY     77  61  57 W5        29.98S
ORANGE CITY *  SUNNY     75  52  43 CALM      29.97F
SHELDON *      SUNNY     75  54  46 VRB5      29.96S
SIOUX CITY     SUNNY     79  57  46 CALM      29.97S HX  80
SPENCER        SUNNY     78  55  44 W6        29.97S
STORM LAKE *   SUNNY     75  54  46 NW3       29.99S
$$

IAZ055>058-069>071-079>083-090>094-040000-
   SOUTHWEST IOWA

CITY           SKY/WX    TMP DP  RH WIND       PRES   REMARKS
ATLANTIC *     SUNNY     75  54  46 N3        29.97S
AUDUBON *      SUNNY     77  54  44 CALM      29.98S
CLARINDA *     SUNNY     79  55  44 CALM      29.97S
COUNCIL BLFS * SUNNY     75  55  50 NE5       29.98S
CRESTON *      SUNNY     77  54  44 NE6       29.96S
HARLAN  *      SUNNY     75  54  46 CALM      30.01S
LAMONI         SUNNY     78  57  48 N6        29.95F
RED OAK *      SUNNY     77  52  41 VRB3      29.96F
SHENANDOAH *   SUNNY     79  55  44 NW3       29.96F
$$

IAZ047>049-059>061-072>074-084-040000-
   CENTRAL IOWA

CITY           SKY/WX    TMP DP  RH WIND       PRES   REMARKS
AMES           SUNNY     78  57  48 N6        29.95F
ANKENY *       SUNNY     77  57  50 NE5       29.95S
CHARITON *     SUNNY     75  55  50 N5        29.95F
DES MOINES     SUNNY     80  54  40 VRB3      29.95S HX  80
GRINNELL*      SUNNY     75  55  50 NW5       29.97R
KNOXVILLE *    SUNNY     75  50  41 NW5       29.95S
MARSHALLTOWN   SUNNY     77  58  51 VRB3      29.95S
PELLA *        SUNNY     77  61  57 CALM      29.96S
PERRY *          N/A     77  54  44 CALM      29.96F
$$

IAZ004>006-015-016-023>025-035-036-040000-
   NORTH CENTRAL IOWA

CITY           SKY/WX    TMP DP  RH WIND       PRES   REMARKS
ALGONA *       SUNNY     77  48  36 W5        29.97S
CLARION *      SUNNY     77  52  41 W6        29.96S
ESTHERVILLE    SUNNY     76  58  53 SW6       29.96S
FORT DODGE *   SUNNY     77  54  44 W6        29.97S
MASON CITY     SUNNY     77  55  46 W8        29.96F
FOREST CITY *  SUNNY     73  52  46 W6        29.96S
IOWA FALLS *     N/A     77  55  47 CALM      29.97S
$$

IAZ007>011-017>019-026>030-037>042-050>054-066-040000-
   NORTHEAST IOWA

CITY           SKY/WX    TMP DP  RH WIND       PRES   REMARKS
CEDAR RAPIDS   SUNNY     76  54  46 NW5       29.94S
CHARLES CITY * SUNNY     75  59  57 W6        29.95F
CLINTON *      SUNNY     75  57  53 N5        29.96S
DECORAH *        N/A    N/A N/A N/A MISG        N/A
DUBUQUE        SUNNY     75  51  43 N3        29.95F
MONTICELLO *   SUNNY     75  55  50 N5        29.94S
OELWEIN *      SUNNY     75  57  53 CALM      29.96S
WATERLOO       SUNNY     77  56  48 W6        29.94S
$$

IAZ064-065-067-068-078-040000-
   EAST CENTRAL IOWA

CITY           SKY/WX    TMP DP  RH WIND       PRES   REMARKS
DAVENPORT      SUNNY     76  57  51 N5        29.93F
IOWA CITY      SUNNY     77  56  48 N8        29.94S
MT. PLEASANT * SUNNY     81  54  39 N3        29.93S HX  80
MUSCATINE *    SUNNY     77  57  50 N5        29.93S
QUAD CITIES    SUNNY     77  57  50 CALM      29.92S
$$

IAZ062-063-075>077-085>089-095>099-040000-
   SOUTHEAST IOWA

CITY           SKY/WX    TMP DP  RH WIND       PRES   REMARKS
BURLINGTON     SUNNY     78  58  49 CALM      29.92F
FAIRFIELD *    SUNNY     77  57  50 N3        29.94S
FORT MADISON * SUNNY     77  61  57 CALM      29.94S
KEOKUK *       SUNNY     77  61  57 VRB3      29.92S
OSKALOOSA *      N/A     75  59  57 N5        29.96R
CENTERVILLE *  SUNNY     75  59  57 CALM      29.96S
OTTUMWA        SUNNY     77  59  53 MISG      29.93S
WASHINGTON *   SUNNY     77  59  53 CALM      29.95S
$$

ABBREVIATIONS USED IN REMARKS
   TC - TEMPERATURES IN CELSIUS
  WCI - WIND CHILL INDEX
   HX - HEAT INDEX
  VSB - VISIBILITY
$$




USA.gov is the U.S. government's official web portal to all federal, state and local government web resources and services.